Regional Weather Roundup
Issued by NWS

Home | Current Version | Previous Version | Text Only | Print | Product List | Glossary On
Versions: 1 2 3 4 5 6 7 8 9 10 11 12 13 14 15 16 17 18 19 20 21 22 23 24 25 26 27 28 29 30 31 32 33 34 35 36 37 38 39 40 41 42 43 44 45 46 47 48 49 50
000
ASUS44 KOUN 291310
RWROK

WEATHER ROUNDUP FOR OKLAHOMA
NATIONAL WEATHER SERVICE NORMAN OK
800 AM CDT TUE JUL 29 2014

NOTE: "FAIR" INDICATES FEW OR NO CLOUDS BELOW 12,000 FEET WITH NO
      SIGNIFICANT WEATHER AND/OR OBSTRUCTIONS TO VISIBILITY.

OKZ001>007-009>012-014-015-017-291400-
NORTHWEST OKLAHOMA AND THE PANHANDLE

CITY           SKY/WX    TMP DP  RH WIND       PRES   REMARKS
GAGE           CLOUDY    70  63  78 S3        30.20R
ENID/WOODRING  MOSUNNY   72  64  78 NE5       30.13F
$$

OKZ016-021>023-033>039-044-045-291400-
SOUTHWEST OKLAHOMA

CITY           SKY/WX    TMP DP  RH WIND       PRES   REMARKS
LAWTON/REGL    CLOUDY    73  70  90 CALM      30.17R
LAWTON/FT SILL CLOUDY    73  70  88 CALM      30.16R
FREDERICK      CLOUDY    74  71  91 CALM      30.14R
CLINTON        CLOUDY    73  65  75 CALM      30.21R
HOBART         CLOUDY    73  69  87 CALM      30.19R
ALTUS AFB      DRIZZLE   73  73 100 CALM      30.18R
$$

OKZ018>020-024>031-291400-
CENTRAL OKLAHOMA

CITY           SKY/WX    TMP DP  RH WIND       PRES   REMARKS
OKLAHOMA CITY  PTSUNNY   76  64  66 CALM      30.17R
OKC/WILEY POST PTSUNNY   75  67  76 CALM      30.17R
OKC/TINKER AFB PTSUNNY   71  63  74 S3        30.17R
STILLWATER     SUNNY     70  63  78 E3        30.17R
GUTHRIE        PTSUNNY   73  62  68 MISG      30.17R
$$

OKZ008-013-054>072-291400-
NORTHEAST OKLAHOMA

CITY           SKY/WX    TMP DP  RH WIND       PRES   REMARKS
TULSA          MOSUNNY   69  64  84 NW3       30.15R
TULSA/JONES    SUNNY     71  64  78 NE3       30.16R
PONCA CITY     SUNNY     70  61  73 E6        30.17R
BARTLESVILLE   SUNNY     66  62  87 CALM      30.19R
MUSKOGEE       SUNNY     68  63  84 CALM      30.17R
$$

OKZ032-040>043-046>053-073>077-291400-
SOUTH CENTRAL/SOUTHEAST OKLAHOMA

CITY           SKY/WX    TMP DP  RH WIND       PRES   REMARKS
ARDMORE/DWNTWN CLOUDY    72  68  88 CALM      30.15R
MCALESTER      SUNNY     69  64  84 CALM      30.16R
$$



USA.gov is the U.S. government's official web portal to all federal, state and local government web resources and services.